Погода в Усть-Илыче

Россия / Республика Коми     62°30′58″N   56°44′34″E
темп.,
°C
ветер,
м/с
пор.,
м/с
влажн.,
%
обл.,
%
осадки,
мм/ч
давл.,
гПа
погр.,
м
8 марта, пн
пн800:00−22вюв1110090 0.1 100720
03:00−22в129991 0.1 100620
06:00−23вюв1210089 0.0 100520
09:00−19всв129389 0.1 1004241
12:00−16св2389100 0.0 1004578
15:00−16ссв2488100 0.1 1003585
18:00−21с369798 0.0 1005131
21:00−24с259893 0.0 1006122
9 марта, вт
вт900:00−26с379878 0.0 1006159
03:00−30ссз389673 0.0 1008221
06:00−32ссз389618 0.0 1009219
09:00−29ссз479429 0.0 1010315
12:00−26ссз479259 0.0 1012413
15:00−24ссз379068 0.0 1013490
18:00−29ссз239758 0.0 101552
21:00−31сз239829 0.0 101727
10 марта, ср
ср1000:00−32сз22990 0.0 101819
03:00−33сз22990 0.0 101819
06:00−34з129918 0.0 101819
09:00−26зюз129237 0.0 1017230
12:00−20юз259089 0.0 1014432
15:00−18юз479191 0.0 1012480
18:00−19зюз2796100 0.3 1011364
21:00−20з229999 0.4 101026
11 марта, чт
чт1100:00−20з0099100 0.1 101020
03:00−22св2299100 0.1 101122
06:00−25св2299100 0.0 101125
09:00−22всв1393100 0.0 1012229
12:00−18св1285100 0.0 1013410
15:00−17сз1182100 0.0 1013448
18:00−20ю1191100 0.0 101320
21:00−19ю2498100 0.2 1013124
12 марта, пт
пт1200:00−19ююз2797100 0.1 1013217
03:00−18юз2498100 0.3 1012109
06:00−17зюз2597100 0.1 1013147
09:00−14зюз3692100 0.1 1012480
12:00−11зюз3688100 0.1 1012752
15:00−10зюз4889100 0.2 1011783
18:00−11зюз3994100 0.1 1012520
21:00−10зюз31093100 0.1 1013507